Location: Çayiçi
(36.4667°N, 30.2333°E)
Time: 02:37:10
(UTC+00:00)

Cosmos 1709 Rocket - Pass Details

Date: 09 February 2023
Orbit: 948 x 1001 km, 82.9° (Epoch: 01 April)

Event Time Altitude Azimuth Distance (km) Brightness Sun altitude
Rises 16:51:01 0° 356° (N) 3,634 7.0 -16.1°
Reaches altitude 10° 16:53:33 10° 359° (N) 2,681 6.3 -16.6°
Maximum altitude 16:59:39 69° 82° (E) 1,013 3.8 -17.8°
Drops below altitude 10° 17:05:41 10° 166° (SSE) 2,663 6.2 -19.0°
Sets 17:08:11 0° 168° (SSE) 3,607 6.9 -19.5°
